Location: Bratislava
(0.0000°N, 17.1167°E)
Time: 03:05:46
(UTC+01:00)

Meteor 2-15 Rocket - Pass Details

Date: 24 January 2021
Orbit: 939 x 956 km, 82.5° (Epoch: 06 March)

Event Time Altitude Azimuth Distance (km) Brightness Sun altitude
Rises 19:21:19 0° 3° (N) 3,615 7.3 -18.3°
Reaches altitude 10° 19:23:50 10° 6° (N) 2,671 6.5 -18.9°
Maximum altitude 19:29:52 62° 87° (E) 1,058 4.4 -20.3°
Drops below altitude 10° 19:35:53 10° 166° (SSE) 2,672 6.9 -21.7°
Sets 19:38:24 0° 169° (S) 3,617 7.6 -22.3°
